EW4195 Weather Reports


Display with metric or nautical units.
time (UTC)temp
F
wind
direction
speed
MPH
gust
MPH
rain 1hr
in
rain 24hr
in
rain mn
in
humidity
%
barometer
mb
20260506144307 54 44 4.0 10.0 0.00 0.00 0.00 1 1011.6
20260506143320 54 18 5.0 11.0 0.00 0.00 0.00 1 1011.6
20260506141111 55 62 6.0 14.0 0.00 0.00 0.00 1 1011.5
20260506140126 56 58 6.0 14.0 0.00 0.00 0.00 1 1011.5
20260506135120 57 26 4.0 10.0 0.00 0.00 0.00 8 1011.4
20260506134133 58 78 3.0 10.0 0.00 0.00 0.00 28 1011.5
20260506133124 58 55 2.0 10.0 0.00 0.00 0.00 39 1011.4
20260506132117 60 50 4.0 10.0 0.00 0.00 0.00 42 1011.4
20260506131118 60 31 4.0 11.0 0.00 0.00 0.00 46 1011.4
20260506124935 60 71 5.0 10.0 0.00 0.00 0.00 46 1011.4
20260506123901 60 16 5.0 10.0 0.00 0.00 0.00 46 1011.4
20260506122910 60 348 4.0 9.0 0.00 0.00 0.00 44 1011.3
20260506121933 59 16 4.0 9.0 0.00 0.00 0.00 45 1011.4
20260506120915 58 337 5.0 11.0 0.00 0.00 0.00 38 1011.3
20260506115859 58 10 4.0 12.0 0.00 0.00 0.00 37 1011.3
20260506114907 57 28 4.0 12.0 0.00 0.00 0.00 34 1011.4
20260506113924 57 20 5.0 11.0 0.00 0.00 0.00 32 1011.4
20260506111832 57 14 5.0 11.0 0.00 0.00 0.00 32 1011.4
20260506110834 57 9 5.0 11.0 0.00 0.00 0.00 37 1011.3
20260506105819 58 12 6.0 14.0 0.00 0.00 0.00 38 1011.3
20260506104815 58 9 7.0 14.0 0.00 0.00 0.00 36 1011.3
20260506103819 59 21 6.0 13.0 0.00 0.00 0.00 34 1011.4
20260506101641 57 5 7.0 14.0 0.00 0.00 0.00 29 1011.3
20260506100642 56 17 6.0 13.0 0.00 0.00 0.00 25 1011.4
20260506095618 55 341 6.0 12.0 0.00 0.00 0.00 17 1011.3
20260506093413 55 30 8.0 14.0 0.00 0.00 0.00 11 1011.3
20260506092349 55 34 7.0 14.0 0.00 0.00 0.00 6 1011.3
20260506091330 55 14 6.0 14.0 0.00 0.00 0.00 1 1011.2
20260506090352 54 340 6.0 13.0 0.00 0.00 0.00 1 1011.2
20260506085327 53 348 6.0 14.0 0.00 0.00 0.00 1 1011.1
20260506080924 52 0 6.0 15.0 0.00 0.00 0.00 1 1011.0
20260506072829 52 13 7.0 13.0 0.00 0.00 0.00 1 1010.8
20260506071844 51 10 8.0 15.0 0.00 0.00 0.00 1 1010.8
20260506070822 51 5 6.0 15.0 0.00 0.00 0.00 1 1010.7
20260506061548 50 350 6.0 12.0 0.00 0.00 0.00 1 1010.5
20260506060547 51 350 7.0 16.0 0.00 0.00 0.00 1 1010.5
20260506050354 50 28 7.0 15.0 0.00 0.00 0.00 1 1010.5
20260506044413 50 5 6.0 14.0 0.00 0.00 0.00 1 1010.5
20260506042248 50 13 7.0 14.0 0.00 0.00 0.00 1 1010.4
20260506041254 50 24 7.0 14.0 0.00 0.00 0.00 1 1010.4
20260506040253 50 17 5.0 11.0 0.00 0.00 0.00 1 1010.5
20260506035250 51 41 6.0 14.0 0.00 0.00 0.00 1 1010.5
20260506034224 51 28 6.0 14.0 0.00 0.00 0.00 1 1010.6
20260506033151 50 19 5.0 13.0 0.00 0.00 0.00 1 1010.7
20260506032152 50 33 6.0 14.0 0.00 0.00 0.00 1 1010.7
20260506031119 51 350 7.0 14.0 0.00 0.00 0.00 1 1010.7
20260506030107 51 5 6.0 14.0 0.00 0.00 0.00 1 1010.8
20260506025118 51 0 7.0 13.0 0.00 0.00 0.00 1 1010.9
20260506024107 51 5 5.0 13.0 0.00 0.00 0.00 1 1010.9
20260506023048 51 342 6.0 13.0 0.00 0.00 0.00 1 1011.0
20260506022018 51 26 7.0 13.0 0.00 0.00 0.00 1 1011.1
20260506021041 51 49 7.0 12.0 0.00 0.00 0.00 1 1011.0
20260506020007 52 41 5.0 13.0 0.00 0.00 0.00 1 1011.0
20260506013831 52 19 5.0 13.0 0.00 0.00 0.00 1 1011.0
20260506012819 52 19 6.0 14.0 0.00 0.00 0.00 1 1011.0
20260506011817 52 22 7.0 14.0 0.00 0.00 0.00 1 1011.0
20260506010743 52 53 7.0 14.0 0.00 0.00 0.00 1 1011.2
20260506004628 52 24 7.0 13.0 0.00 0.00 0.00 1 1011.2
20260506003607 52 26 7.0 13.0 0.00 0.00 0.00 1 1011.3
20260506002611 52 33 7.0 13.0 0.00 0.00 0.00 1 1011.3
20260506001627 52 19 7.0 13.0 0.00 0.00 0.00 1 1011.3
20260506000603 52 40 6.0 14.0 0.00 0.00 0.00 1 1011.4
20260505235609 53 55 8.0 18.0 0.00 0.00 0.00 1 1011.4
20260505234600 53 41 8.0 18.0 0.00 0.00 0.00 1 1011.4
20260505233619 53 65 8.0 17.0 0.00 0.00 0.00 1 1011.4
20260505232635 53 14 7.0 14.0 0.00 0.00 0.00 1 1011.4
20260505231639 53 5 7.0 17.0 0.00 0.00 0.00 1 1011.3
20260505230616 53 24 8.0 17.0 0.00 0.00 0.00 1 1011.3
20260505225541 53 75 8.0 15.0 0.00 0.00 0.00 1 1011.4
20260505223350 53 36 8.0 16.0 0.00 0.00 0.00 1 1011.5
20260505222346 53 72 9.0 17.0 0.00 0.00 0.00 1 1011.5
20260505221410 53 36 7.0 17.0 0.00 0.00 0.00 1 1011.5
20260505220343 53 59 7.0 15.0 0.00 0.00 0.00 1 1011.5
20260505214226 53 28 7.0 16.0 0.00 0.00 0.00 1 1011.4
20260505213234 53 57 5.0 14.0 0.00 0.00 0.00 1 1011.5
20260505212201 53 71 6.0 15.0 0.00 0.00 0.00 1 1011.5
20260505211149 53 34 6.0 15.0 0.00 0.00 0.00 1 1011.5
20260505204953 53 71 4.0 11.0 0.00 0.00 0.00 1 1011.4
20260505204000 53 56 4.0 10.0 0.00 0.00 0.00 1 1011.4
20260505202950 53 58 5.0 13.0 0.00 0.00 0.00 1 1011.4
20260505201914 53 60 6.0 13.0 0.00 0.00 0.00 1 1011.3
20260505200904 53 57 5.0 13.0 0.00 0.00 0.00 1 1011.2
20260505195900 53 70 5.0 13.0 0.00 0.00 0.00 1 1011.1
20260505194837 53 34 4.0 10.0 0.00 0.00 0.00 1 1010.9
20260505193810 53 69 4.0 10.0 0.00 0.00 0.00 1 1010.9
20260505192758 54 58 4.0 9.0 0.00 0.00 0.00 1 1010.8
20260505191801 54 54 4.0 10.0 0.00 0.00 0.00 1 1010.7
20260505190742 54 67 4.0 12.0 0.00 0.00 0.00 1 1010.7
20260505185745 55 52 4.0 12.0 0.00 0.00 0.00 1 1010.6
20260505184724 55 42 5.0 12.0 0.00 0.00 0.00 1 1010.5
20260505183700 55 45 5.0 12.0 0.00 0.00 0.00 1 1010.5
20260505182723 56 22 4.0 12.0 0.00 0.00 0.00 3 1010.5
20260505181707 56 62 4.0 10.0 0.00 0.00 0.00 6 1010.5
20260505180714 56 79 4.0 11.0 0.00 0.00 0.00 5 1010.5
20260505175643 56 54 4.0 11.0 0.00 0.00 0.00 5 1010.5
20260505173438 56 82 4.0 10.0 0.00 0.00 0.00 1 1010.5
20260505172412 56 53 4.0 11.0 0.00 0.00 0.00 5 1010.4
20260505170230 57 32 4.0 11.0 0.00 0.00 0.00 14 1010.5
20260505165244 57 46 5.0 11.0 0.00 0.00 0.00 19 1010.5
20260505164212 57 64 5.0 10.0 0.00 0.00 0.00 14 1010.6
20260505163157 57 35 4.0 13.0 0.00 0.00 0.00 12 1010.5
20260505162204 57 78 6.0 13.0 0.00 0.00 0.00 17 1010.4
20260505161132 57 78 5.0 13.0 0.00 0.00 0.00 13 1010.5
20260505152709 57 71 5.0 12.0 0.00 0.00 0.00 1 1010.8
20260505151714 57 44 5.0 12.0 0.00 0.00 0.00 1 1010.8
20260505150642 57 51 5.0 12.0 0.00 0.00 0.00 1 1010.9